STARLINK-11288, 61002

Orbit data source: Space-Track

STARLINK-11288, 61002 is a payload satellite owned by SpaceX/Seattle (US) in LEO that was launched on Thu, 05 Sep 2024 UTC via an FALCON 9 launch vehicle from the Air Force Eastern Test Range (AFETR). Payload-class satellites include a variety of spacecraft equipped with specific instruments for various scientific and technological missions. These include communications satellites like Starlink; space stations such as the ISS; scientific satellites like the Hubble; Earth observation satellites from companies like Planet Labs, Umbra, and HawkEye 360; GPS; miniature CubeSats for education and research; and military/defense satellites.

Loading next visibility...
Identifier
61002, 2024-158N
Orbit
LEO
Last TLE update
13 hours ago
Origin
Manufacturer
SpaceX/Seattle
Mission
Operational Commercial Communications
Bus & Motor
STARLINK V2M, Unknown motor
Mass
730 kg wet, ~700 kg dry
Launch date (UTC)
2024-09-05 (10 months ago)
Launch vehicle
FALCON 9
Launch site
Air Force Eastern Test Range (AFETR)
Object type
Payload
Rocket body
Debris
Shape & HBR
Box + 2 Pan, 14.5 m
Radar Cross Section
36.964 m², Large (>1 m²)

Expand to show TLE details & history

TLE from 13 hours ago
0 STARLINK-11288
1 61002U 24158N   25199.43054515 -.00000126  00000-0  38068-5 0  9992
2 61002  53.1568 355.9228 0000439  89.0283 271.0785 15.69705532 50793
Epoch: 2025-07-18T10:19Z
TLE epoch observation values (Epoch: 2025-07-18T10:19:59.1Z)
Latitude
-0.00006°
Longitude
-95.55561°
Altitude
360.649 km
Speed
7.694 km/s
True Right ascension
23h 43m 41s
True Declination
0° 00' 00"
Sunlit
Object was in full shadow at epoch
Visualization orbit readout
Latitude
47.9102°
Longitude
26.25848°
Altitude
364.791 km
Speed
7.697 km/s
Apparent Right ascension
03h 34m 33s
Apparent Declination
10° 57' 33"
Sunlit
Object is in daylight
Visualization observer readout
Local Sidereal Time
11:49:34
Azimuth
301.278° NW
Elevation
-17.243°
Doppler factor
1
Orbital elements
Apogee altitude
360.297 km
Perigee altitude
359.705 km
Semi-major axis
6,738.138 km
Eccentricity
0.00004
Inclination
53.1568°
RAAN
355.9228°
Arg. of periapsis
89.0283°
True anomaly
271.07347°
Mean anomaly
271.0785°
Eccentric anomaly
271.07599°
Mean motion
3.92404 °/min
Orbital period
91.74 mins
BSTAR
0.0000038068
Loading maneuver chart data...
Loading SW <> Apogee altitude chart data...
Loading historical data...
Loading historical data...
Loading historical data...
Loading historical data...
Loading historical data...
Loading historical data...
Loading historical data...
|